DW8750 Weather Reports


Display with metric or nautical units.
time (UTC)temp
F
wind
direction
speed
MPH
gust
MPH
rain 1hr
in
rain 24hr
in
rain mn
in
humidity
%
barometer
mb
20260502190006 60 201 3.0 6.0 0.00 0.00 0.00 60 1022.8
20260502185010 61 199 2.0 6.0 0.00 0.00 0.00 58 1022.7
20260502184002 61 310 4.0 7.0 0.00 0.00 0.00 56 1022.6
20260502183004 61 302 3.0 7.0 0.00 0.00 0.00 56 1022.4
20260502182002 61 282 4.0 7.0 0.00 0.00 0.00 54 1022.2
20260502181002 61 300 4.0 8.0 0.00 0.00 0.00 53 1022.2
20260502163956 64 338 6.0 11.0 0.00 0.00 0.00 51 1021.4
20260502162959 64 312 9.0 13.0 0.00 0.00 0.00 48 1021.5
20260502161956 64 348 7.0 14.0 0.00 0.00 0.00 51 1021.4
20260502160956 64 303 8.0 13.0 0.00 0.00 0.00 51 1021.4
20260502151954 64 341 9.0 14.0 0.00 0.00 0.00 44 1021.3
20260502122949 63 341 10.0 17.0 0.00 0.00 0.00 47 1022.1
20260502121949 64 9 8.0 14.0 0.00 0.00 0.00 49 1022.2
20260502120951 63 23 9.0 16.0 0.00 0.00 0.00 49 1022.2
20260502114949 64 53 9.0 16.0 0.00 0.00 0.00 46 1022.1
20260502113948 64 30 10.0 16.0 0.00 0.00 0.00 48 1022.2
20260502112945 64 12 10.0 18.0 0.00 0.00 0.00 50 1022.2
20260502111946 64 349 9.0 16.0 0.00 0.00 0.00 47 1022.0
20260502110946 63 21 11.0 16.0 0.00 0.00 0.00 45 1022.1
20260502105946 64 5 10.0 17.0 0.00 0.00 0.00 45 1022.2
20260502104945 64 24 10.0 19.0 0.00 0.00 0.00 43 1022.2
20260502103945 64 27 9.0 17.0 0.00 0.00 0.00 44 1022.3
20260502100945 62 22 10.0 16.0 0.00 0.00 0.00 45 1022.4
20260502090945 63 86 9.0 15.0 0.00 0.00 0.00 53 1022.2
20260502070939 62 39 8.0 15.0 0.00 0.00 0.00 54 1021.6
20260502065940 62 5 9.0 17.0 0.00 0.00 0.00 54 1021.6
20260502064938 61 38 8.0 14.0 0.00 0.00 0.00 55 1021.5
20260502062940 61 57 5.0 14.0 0.00 0.00 0.00 54 1021.4
20260502061939 59 255 2.0 5.0 0.00 0.00 0.00 61 1021.4
20260502060939 58 252 3.0 5.0 0.00 0.00 0.00 62 1021.5
20260502055939 57 219 2.0 4.0 0.00 0.00 0.00 64 1021.4
20260502054938 56 211 2.0 4.0 0.00 0.00 0.00 65 1021.4
20260502053942 56 181 2.0 4.0 0.00 0.00 0.00 66 1021.2
20260502052936 56 208 3.0 6.0 0.00 0.00 0.00 66 1021.2
20260502051937 55 205 3.0 5.0 0.00 0.00 0.00 66 1021.2
20260502050936 54 188 3.0 6.0 0.00 0.00 0.00 67 1021.2
20260502045935 53 194 3.0 5.0 0.00 0.00 0.00 68 1021.2
20260502044934 53 221 2.0 5.0 0.00 0.00 0.00 68 1021.2
20260502043935 53 191 3.0 5.0 0.00 0.00 0.00 67 1021.1
20260502041932 53 210 5.0 7.0 0.00 0.00 0.00 67 1021.1
20260502040932 53 207 3.0 5.0 0.00 0.00 0.00 68 1021.0
20260502035934 53 204 3.0 5.0 0.00 0.00 0.00 68 1021.0
20260502034932 53 183 4.0 5.0 0.00 0.00 0.00 68 1021.0
20260502033932 53 184 3.0 5.0 0.00 0.00 0.00 70 1021.0
20260502032932 53 182 3.0 5.0 0.00 0.00 0.00 70 1021.0
20260502031932 54 187 3.0 5.0 0.00 0.00 0.00 68 1021.0
20260502030934 54 176 3.0 5.0 0.00 0.00 0.00 69 1021.0
20260502025932 54 177 3.0 5.0 0.00 0.00 0.00 71 1021.0
20260502024932 54 177 3.0 5.0 0.00 0.00 0.00 72 1021.0
20260502023932 54 171 3.0 5.0 0.00 0.00 0.00 72 1021.0
20260502022930 54 185 2.0 4.0 0.00 0.00 0.00 74 1021.0
20260502021930 55 191 4.0 5.0 0.00 0.00 0.00 74 1021.1
20260502020934 55 193 3.0 5.0 0.00 0.00 0.00 74 1021.2
20260502015932 55 192 2.0 5.0 0.00 0.00 0.00 74 1021.0
20260502014931 55 197 3.0 4.0 0.00 0.00 0.00 74 1021.1
20260502013932 55 187 3.0 5.0 0.00 0.00 0.00 74 1020.9
20260502012930 55 205 3.0 5.0 0.00 0.00 0.00 74 1020.8
20260502011929 55 189 3.0 6.0 0.00 0.00 0.00 74 1020.7
20260502010930 55 213 3.0 5.0 0.00 0.00 0.00 74 1020.7
20260502005930 55 157 1.0 5.0 0.00 0.00 0.00 73 1020.9
20260502004930 55 157 1.0 3.0 0.00 0.00 0.00 73 1020.9
20260502003930 55 157 3.0 4.0 0.00 0.00 0.00 73 1020.8
20260502002935 56 195 3.0 6.0 0.00 0.00 0.00 73 1020.9
20260502001930 56 213 3.0 7.0 0.00 0.00 0.00 72 1020.8
20260502000931 57 227 2.0 4.0 0.00 0.00 0.00 71 1020.8
20260501235930 57 205 2.0 3.0 0.00 0.00 0.00 70 1020.7
20260501233930 58 115 1.0 2.0 0.00 0.00 0.00 68 1020.7
20260501232931 58 115 2.0 4.0 0.00 0.00 0.00 69 1020.8
20260501231936 58 96 2.0 4.0 0.00 0.00 0.00 68 1020.7
20260501230923 58 92 3.0 5.0 0.00 0.00 0.00 67 1020.8
20260501225930 58 175 6.0 9.0 0.00 0.00 0.00 66 1020.9
20260501224925 58 225 7.0 10.0 0.00 0.00 0.00 66 1020.9
20260501222925 58 196 6.0 12.0 0.00 0.00 0.00 67 1021.0
20260501221925 58 214 6.0 10.0 0.00 0.00 0.00 67 1021.0
20260501220923 58 208 6.0 9.0 0.00 0.00 0.00 68 1021.0
20260501215923 58 203 5.0 8.0 0.00 0.00 0.49 68 1021.1
20260501214925 58 229 6.0 9.0 0.00 0.00 0.49 69 1021.2
20260501213924 58 204 6.0 8.0 0.00 0.00 0.49 69 1021.1
20260501211924 57 219 5.0 7.0 0.00 0.00 0.49 70 1021.2
20260501210926 57 226 4.0 6.0 0.00 0.00 0.49 71 1021.2
20260501205923 57 212 4.0 6.0 0.00 0.00 0.49 70 1021.2
20260501204923 57 206 4.0 5.0 0.00 0.00 0.49 70 1021.1
20260501203922 57 201 4.0 7.0 0.00 0.00 0.49 70 1021.1
20260501201921 57 175 5.0 7.0 0.00 0.00 0.49 68 1021.0
20260501200920 58 200 3.0 4.0 0.00 0.00 0.49 67 1021.0
20260501194921 59 190 2.0 4.0 0.00 0.00 0.49 66 1020.8
20260501193922 59 190 2.0 5.0 0.00 0.00 0.49 65 1020.7
20260501192923 59 173 3.0 5.0 0.00 0.00 0.49 64 1020.6
20260501190920 60 19 0.0 0.0 0.00 0.00 0.49 60 1020.5